Location: Laterina
(43.5167°N, 11.7167°E)
Time: 16:03:40
(UTC+00:00)

Cosmos 1939 Rocket - Pass Details

Date: 24 September 2020
Orbit: 531 x 586 km, 97.4° (Epoch: 25 October)

Event Time Altitude Azimuth Distance (km) Brightness Sun altitude
Rises 17:54:59 0° 184° (S) 2,791 6.4 -9.6°
Reaches altitude 10° 17:57:13 10° 192° (SSW) 1,900 5.6 -10.0°
Maximum altitude 18:01:07 40° 262° (W) 874 4.5 -10.7°
Drops below altitude 10° 18:05:03 10° 333° (NNW) 1,917 6.1 -11.4°
Sets 18:07:20 0° 341° (NNW) 2,819 6.9 -11.9°
